Regional Weather Roundup
Issued by NWS Raleigh/Durham, NC

Home | Current Version | Previous Version | Text Only | Print | Product List | Glossary On
Versions: 1 2 3 4 5 6 7 8 9 10 11 12 13 14 15 16 17 18 19 20 21 22 23 24 25 26 27 28 29 30 31 32 33 34 35 36 37 38 39 40 41 42 43 44 45 46 47 48 49 50
475
ASUS42 KRAH 240510
RWRRAH
NORTH CAROLINA WEATHER ROUNDUP
NATIONAL WEATHER SERVICE RALEIGH NC
100 AM EDT THU AUG 24 2017

NOTE: "FAIR" INDICATES FEW OR NO CLOUDS BELOW 12,000 FEET WITH NO
SIGNIFICANT WEATHER AND/OR OBSTRUCTIONS TO VISIBILITY.

NCZ001-053-055-056-065-067-240600-
WESTERN NORTH CAROLINA

CITY           SKY/WX    TMP DP  RH WIND       PRES   REMARKS
ASHEVILLE      PTCLDY    70  60  70 N5        30.01R
JEFFERSON      PTCLDY    61  57  84 N3        30.07R
MORGANTON      MOCLDY    69  66  91 CALM      29.99R
HICKORY        MOCLDY    72  64  76 N5        29.95R
RUTHERFORDTON  CLOUDY    74  65  73 NE3       29.95R
MOUNT AIRY     CLOUDY    71  61  70 CALM      29.99R
BOONE          CLEAR     59  59 100 CALM      30.07S
$$

NCZ021-022-025-041-071-084-088-240600-
CENTRAL NORTH CAROLINA

CITY           SKY/WX    TMP DP  RH WIND       PRES   REMARKS
CHARLOTTE      MOCLDY    77  69  76 N12       29.91R
GREENSBORO     MOCLDY    74  72  93 N6        29.91F
WINSTON-SALEM  CLEAR     72  62  71 NE8       29.94S
RALEIGH-DURHAM PTCLDY    74  72  93 CALM      29.89F
FORT BRAGG     CLOUDY    74  71  92 S6        29.86F
FAYETTEVILLE   CLOUDY    73  73 100 SE3       29.86F
BURLINGTON     CLOUDY    76  72  87 NE5       29.90F
LAURINBURG     CLOUDY    74  73  97 NE6       29.88F
$$

NCZ011-015-027-028-043-044-047-080-103-240600-
NORTHEASTERN NORTH CAROLINA

CITY           SKY/WX    TMP DP  RH WIND       PRES   REMARKS
ROCKY MT-WILSO CLOUDY    72  72 100 NE3       29.88F
GREENVILLE     CLOUDY    72  72 100 CALM      29.90S
WASHINGTON     CLOUDY    72  70  96 N5        29.87F
ELIZABETH CITY CLOUDY    75  75 100 NW7       29.84F
MANTEO         NOT AVBL
CAPE HATTERAS  CLOUDY    79  77  94 W9        29.83F
$$

NCZ078-087-090-091-093-098-101-240600-
SOUTHEASTERN NORTH CAROLINA

CITY           SKY/WX    TMP DP  RH WIND       PRES   REMARKS
LUMBERTON      CLOUDY    74  73  97 CALM      29.87S
GOLDSBORO      MOCLDY    74  71  90 VRB2      29.87F
KINSTON        CLOUDY    73  72  97 W3        29.88S
KENANSVILLE    CLOUDY    70  70 100 SW3       29.87F
NEW BERN       CLOUDY    72  72 100 SW5       29.86S
CHERRY POINT   TSTM      72  71  97 S7        29.85F
BEAUFORT       LGT RAIN  76  75  97 SW10      29.86R
JACKSONVILLE   CLOUDY    72  71  97 SW7       29.84F
WILMINGTON     RAIN      72  71  97 SE6       29.86F
$$





USA.gov is the U.S. government's official web portal to all federal, state and local government web resources and services.